KF2XN Weather Reports


time (UTC)temp
F
wind
direction
speed
knots
gust
knots
rain 1hr
in
rain 24hr
in
rain mn
in
humidity
%
barometer
mb
20260507160043 52 283 2.6 4.3 0.00 0.01 0.00 58 1011.8
20260507154538 52 211 3.5 7.8 0.00 0.01 0.00 57 1011.9
20260507153033 52 244 0.9 6.1 0.00 0.01 0.00 61 1012.1
20260507151530 51 312 0.0 5.2 0.00 0.01 0.00 61 1012.1
20260507150028 50 257 0.9 4.3 0.00 0.01 0.00 63 1012.2
20260507144526 50 282 1.7 4.3 0.00 0.01 0.00 63 1012.3
20260507143038 49 206 4.3 6.1 0.00 0.01 0.00 66 1012.4
20260507141520 48 249 3.5 7.0 0.00 0.01 0.00 65 1012.4
20260507140020 48 199 1.7 4.3 0.00 0.01 0.00 66 1012.5
20260507134517 48 51 0.9 3.5 0.00 0.03 0.00 68 1012.7
20260507133012 46 98 1.7 4.3 0.00 0.03 0.00 71 1012.8
20260507131510 45 89 0.9 4.3 0.00 0.03 0.00 74 1012.8
20260507130003 44 104 1.7 3.5 0.00 0.05 0.00 76 1012.8
20260507124501 43 122 1.7 3.5 0.00 0.05 0.00 78 1012.9
20260507123122 42 60 0.9 3.5 0.00 0.05 0.00 81 1012.9
20260507121559 41 62 0.9 1.7 0.00 0.05 0.00 84 1013.0
20260507120057 40 69 0.0 2.6 0.00 0.05 0.00 87 1013.0
20260507114558 40 49 0.0 0.9 0.00 0.07 0.00 92 1013.1
20260507113055 39 308 0.0 3.5 0.00 0.07 0.00 95 1013.3
20260507111553 40 342 0.0 0.9 0.00 0.07 0.00 95 1013.3
20260507110054 40 347 0.0 1.7 0.00 0.07 0.00 95 1013.1
20260507104558 39 340 0.0 0.9 0.00 0.09 0.00 95 1012.8
20260507103050 39 349 0.0 0.0 0.00 0.09 0.00 95 1012.6
20260507101549 39 349 0.0 0.9 0.00 0.09 0.00 95 1012.3
20260507100056 38 48 0.0 0.9 0.00 0.09 0.00 95 1012.3
20260507094549 38 14 0.0 0.0 0.00 0.13 0.00 95 1012.5
20260507093046 37 14 0.0 0.0 0.00 0.13 0.00 95 1012.4
20260507091544 37 13 0.0 0.0 0.00 0.13 0.00 95 1012.4
20260507090050 37 12 0.0 0.0 0.00 0.13 0.00 95 1012.3
20260507084550 38 13 0.0 0.0 0.00 0.18 0.00 95 1012.3
20260507083039 37 353 0.0 0.9 0.00 0.18 0.00 95 1012.4
20260507081550 38 212 0.0 0.0 0.00 0.18 0.00 95 1012.4
20260507080038 38 211 0.0 0.0 0.00 0.18 0.00 94 1012.4
20260507074535 39 212 0.0 0.0 0.00 0.25 0.00 94 1012.2
20260507073033 39 211 0.0 0.0 0.00 0.25 0.00 94 1012.2
20260507071534 40 212 0.0 0.9 0.00 0.25 0.00 94 1012.2
20260507070032 40 212 0.0 0.0 0.00 0.25 0.00 94 1012.3
20260507064534 41 212 0.0 0.0 0.00 0.28 0.00 94 1012.2
20260507063021 41 211 0.0 0.0 0.00 0.28 0.00 94 1012.5
20260507061519 42 211 0.0 0.9 0.00 0.28 0.00 94 1012.7
20260507060020 42 212 0.0 0.9 0.00 0.28 0.00 94 1012.8
20260507054515 42 212 0.0 0.9 0.00 0.34 0.00 94 1012.7
20260507053012 42 211 0.0 0.9 0.00 0.34 0.00 94 1013.0
20260507051510 43 212 0.0 0.9 0.00 0.34 0.00 94 1012.9
20260507050017 43 223 0.0 1.7 0.00 0.37 0.00 94 1013.1
20260507044505 43 226 0.9 2.6 0.00 0.37 0.00 93 1013.2
20260507043004 43 230 0.0 1.7 0.00 0.37 0.00 93 1013.3
20260507041505 43 209 0.0 1.7 0.00 0.37 0.00 93 1013.1
20260507040059 43 223 0.9 2.6 0.00 0.37 0.00 93 1013.0
20260507034559 43 247 0.9 3.5 0.00 0.38 0.37 93 1013.0
20260507033057 43 235 0.9 1.7 0.00 0.38 0.37 93 1013.0
20260507031557 43 223 0.0 0.9 0.00 0.38 0.37 93 1013.0
20260507030057 43 214 0.0 0.9 0.00 0.38 0.37 92 1013.1
20260507024557 43 212 0.0 0.9 0.00 0.43 0.37 92 1013.0
20260507023056 43 223 0.0 0.9 0.00 0.43 0.37 92 1012.9
20260507021555 43 233 0.0 0.9 0.00 0.43 0.37 92 1012.9
20260507020110 43 234 0.0 0.9 0.00 0.43 0.37 92 1013.1
20260507014559 43 234 0.0 0.9 0.00 0.46 0.37 92 1013.5
20260507013053 43 234 0.0 0.9 0.00 0.46 0.37 91 1013.3
20260507011550 43 217 0.0 0.9 0.00 0.46 0.37 91 1013.2
20260507010059 43 199 0.0 1.7 0.00 0.46 0.37 91 1013.0
20260507004547 43 192 0.0 0.9 0.00 0.53 0.37 91 1012.9
20260507003044 44 48 0.0 0.0 0.00 0.53 0.37 90 1012.6
20260507001544 44 49 0.0 0.9 0.00 0.53 0.37 90 1012.4
20260507000042 44 13 0.0 0.9 0.00 0.53 0.37 89 1012.3
20260506234540 44 3 0.0 0.9 0.00 0.64 0.37 89 1012.2
20260506233040 44 355 0.0 0.9 0.00 0.64 0.37 89 1012.2
20260506231551 44 1 0.0 2.6 0.00 0.64 0.37 88 1012.1
20260506230050 44 309 1.7 3.5 0.00 0.64 0.37 90 1012.1
20260506224539 44 41 0.0 2.6 0.00 0.76 0.37 91 1011.9
20260506223034 43 70 0.9 2.6 0.00 0.76 0.37 92 1011.7
20260506221531 43 8 0.9 3.5 0.00 0.76 0.37 93 1011.4
20260506220035 43 22 0.9 5.2 0.00 0.76 0.37 93 1011.3
20260506214531 43 359 0.9 5.2 0.00 0.90 0.37 93 1011.2
20260506213027 42 324 2.6 7.8 0.01 0.90 0.37 94 1011.2
20260506211626 42 20 1.7 8.7 0.01 0.90 0.37 94 1011.1
20260506210025 42 291 1.7 7.0 0.01 0.90 0.37 93 1010.9
20260506204519 42 324 2.6 7.8 0.01 0.99 0.37 93 1010.8
20260506203016 43 282 1.7 6.1 0.00 0.98 0.36 92 1010.6
20260506201525 46 287 4.3 7.8 0.00 0.98 0.36 89 1010.4
20260506200008 49 299 4.3 9.6 0.00 0.98 0.36 85 1010.2
20260506194508 51 230 6.1 10.4 0.00 0.98 0.36 82 1009.7
20260506193005 51 204 3.5 7.0 0.00 0.98 0.36 85 1009.6
20260506191505 50 202 1.7 4.3 0.00 0.98 0.36 88 1009.7
20260506190005 50 155 0.9 2.6 0.00 0.98 0.36 86 1009.7
20260506184514 50 356 0.0 0.9 0.00 0.98 0.36 84 1009.5
20260506183002 51 292 0.0 0.9 0.00 0.98 0.36 83 1009.6
20260506181502 51 211 0.0 1.7 0.00 0.98 0.36 82 1009.6
20260506180002 51 221 0.0 2.6 0.00 0.98 0.36 83 1009.6
20260506174600 51 228 0.0 1.7 0.00 0.98 0.36 84 1009.7
20260506173059 51 60 0.0 1.7 0.00 0.98 0.36 85 1009.8
20260506171601 50 228 0.0 2.6 0.00 0.98 0.36 86 1009.9
20260506170053 49 252 0.0 1.7 0.00 0.98 0.36 87 1009.9
20260506164551 49 225 0.0 1.7 0.00 0.98 0.36 87 1009.8
20260506163046 49 328 0.9 2.6 0.00 0.98 0.36 88 1009.6
20260506161544 49 342 0.0 1.7 0.00 0.98 0.36 91 1009.7